Year,Month,Day,Hour,Minute,Value (Times are PST for temperature in C)
2008,04,21,00,00,2.50
2008,04,21,00,01,2.50
2008,04,21,00,02,2.50
2008,04,21,00,03,2.50
2008,04,21,00,04,2.50
2008,04,21,00,05,2.50
2008,04,21,00,06,2.40
2008,04,21,00,07,2.40
2008,04,21,00,08,2.40
2008,04,21,00,09,2.40
2008,04,21,00,10,2.40
2008,04,21,00,11,2.40
2008,04,21,00,12,2.40
2008,04,21,00,13,2.40
2008,04,21,00,14,2.30
2008,04,21,00,15,2.30
2008,04,21,00,16,2.30
2008,04,21,00,17,2.30
2008,04,21,00,18,2.30
2008,04,21,00,19,2.30
2008,04,21,00,20,2.30
2008,04,21,00,21,2.30
2008,04,21,00,22,2.30
2008,04,21,00,23,2.30
2008,04,21,00,24,2.30
2008,04,21,00,25,2.30
2008,04,21,00,26,2.30
2008,04,21,00,27,2.30
2008,04,21,00,28,2.30
2008,04,21,00,29,2.30
2008,04,21,00,30,2.20
2008,04,21,00,31,2.20
2008,04,21,00,32,2.20
2008,04,21,00,33,2.20
2008,04,21,00,34,2.20
2008,04,21,00,35,2.20
2008,04,21,00,36,2.20
2008,04,21,00,37,2.20
2008,04,21,00,38,2.20
2008,04,21,00,39,2.20
2008,04,21,00,40,2.20
2008,04,21,00,41,2.30
2008,04,21,00,42,2.30
2008,04,21,00,43,2.30
2008,04,21,00,44,2.40
2008,04,21,00,45,2.50
2008,04,21,00,46,2.70
2008,04,21,00,47,2.80
2008,04,21,00,48,2.80
2008,04,21,00,49,2.80
2008,04,21,00,50,2.90
2008,04,21,00,51,2.90
2008,04,21,00,52,2.90
2008,04,21,00,53,2.90
2008,04,21,00,54,3.00
2008,04,21,00,55,3.10
2008,04,21,00,56,3.10
2008,04,21,00,57,3.20
2008,04,21,00,58,3.20
2008,04,21,00,59,3.20
2008,04,21,01,00,3.30
2008,04,21,01,01,3.30
2008,04,21,01,02,3.30
2008,04,21,01,03,3.30
2008,04,21,01,04,3.40
2008,04,21,01,05,3.40
2008,04,21,01,06,3.40
2008,04,21,01,07,3.40
2008,04,21,01,08,3.40
2008,04,21,01,09,3.40
2008,04,21,01,10,3.40
2008,04,21,01,11,3.30
2008,04,21,01,12,3.30
2008,04,21,01,13,3.30
2008,04,21,01,14,3.30
2008,04,21,01,15,3.30
2008,04,21,01,16,3.30
2008,04,21,01,17,3.30
2008,04,21,01,18,3.20
2008,04,21,01,19,3.20
2008,04,21,01,20,3.10
2008,04,21,01,21,3.10
2008,04,21,01,22,3.10
2008,04,21,01,23,3.00
2008,04,21,01,24,3.00
2008,04,21,01,25,2.90
2008,04,21,01,26,2.90
2008,04,21,01,27,2.80
2008,04,21,01,28,2.80
2008,04,21,01,29,2.80
2008,04,21,01,30,2.70
2008,04,21,01,31,2.70
2008,04,21,01,32,2.70
2008,04,21,01,33,2.60
2008,04,21,01,34,2.60
2008,04,21,01,35,2.60
2008,04,21,01,36,2.60
2008,04,21,01,37,2.60
2008,04,21,01,38,2.60
2008,04,21,01,39,2.60
2008,04,21,01,40,2.60
2008,04,21,01,41,2.60
2008,04,21,01,42,2.60
2008,04,21,01,43,2.60
2008,04,21,01,44,2.50
2008,04,21,01,45,2.40
2008,04,21,01,46,2.40
2008,04,21,01,47,2.30
2008,04,21,01,48,2.30
2008,04,21,01,49,2.20
2008,04,21,01,50,2.10
2008,04,21,01,51,2.10
2008,04,21,01,52,2.00
2008,04,21,01,53,1.90
2008,04,21,01,54,1.90
2008,04,21,01,55,1.90
2008,04,21,01,56,1.80
2008,04,21,01,57,1.80
2008,04,21,01,58,1.80
2008,04,21,01,59,1.80
2008,04,21,02,00,1.70
2008,04,21,02,01,1.70
2008,04,21,02,02,1.70
2008,04,21,02,03,1.70
2008,04,21,02,04,1.70
2008,04,21,02,05,1.70
2008,04,21,02,06,1.70
2008,04,21,02,07,1.70
2008,04,21,02,08,1.70
2008,04,21,02,09,1.70
2008,04,21,02,10,1.70
2008,04,21,02,11,1.70
2008,04,21,02,12,1.70
2008,04,21,02,13,1.70
2008,04,21,02,14,1.70
2008,04,21,02,15,1.70
2008,04,21,02,16,1.70
2008,04,21,02,17,1.70
2008,04,21,02,18,1.70
2008,04,21,02,19,1.70
2008,04,21,02,20,1.70
2008,04,21,02,21,1.70
2008,04,21,02,22,1.70
2008,04,21,02,23,1.70
2008,04,21,02,24,1.60
2008,04,21,02,25,1.60
2008,04,21,02,26,1.60
2008,04,21,02,27,1.60
2008,04,21,02,28,1.50
2008,04,21,02,29,1.50
2008,04,21,02,30,1.40
2008,04,21,02,31,1.40
2008,04,21,02,32,1.40
2008,04,21,02,33,1.40
2008,04,21,02,34,1.40
2008,04,21,02,35,1.30
2008,04,21,02,36,1.30
2008,04,21,02,37,1.30
2008,04,21,02,38,1.30
2008,04,21,02,39,1.30
2008,04,21,02,40,1.30
2008,04,21,02,41,1.30
2008,04,21,02,42,1.30
2008,04,21,02,43,1.20
2008,04,21,02,44,1.20
2008,04,21,02,45,1.10
2008,04,21,02,46,1.10
2008,04,21,02,47,1.00
2008,04,21,02,48,1.00
2008,04,21,02,49,0.90
2008,04,21,02,50,0.80
2008,04,21,02,51,0.80
2008,04,21,02,52,0.80
2008,04,21,02,53,0.70
2008,04,21,02,54,0.70
2008,04,21,02,55,0.70
2008,04,21,02,56,0.60
2008,04,21,02,57,0.60
2008,04,21,02,58,0.60
2008,04,21,02,59,0.60
2008,04,21,03,00,0.60
2008,04,21,03,01,0.60
2008,04,21,03,02,0.50
2008,04,21,03,03,0.50
2008,04,21,03,04,0.50
2008,04,21,03,05,0.50
2008,04,21,03,06,0.50
2008,04,21,03,07,0.40
2008,04,21,03,08,0.40
2008,04,21,03,09,0.40
2008,04,21,03,10,0.40
2008,04,21,03,11,0.40
2008,04,21,03,12,0.40
2008,04,21,03,13,0.40
2008,04,21,03,14,0.40
2008,04,21,03,15,0.30
2008,04,21,03,16,0.30
2008,04,21,03,17,0.30
2008,04,21,03,18,0.30
2008,04,21,03,19,0.30
2008,04,21,03,20,0.30
2008,04,21,03,21,0.70
2008,04,21,03,22,0.30
2008,04,21,03,23,0.30
2008,04,21,03,24,0.30
2008,04,21,03,25,0.30
2008,04,21,03,26,0.30
2008,04,21,03,27,0.30
2008,04,21,03,28,0.40
2008,04,21,03,29,0.40
2008,04,21,03,30,0.40
2008,04,21,03,31,0.40
2008,04,21,03,32,0.40
2008,04,21,03,33,0.40
2008,04,21,03,34,0.40
2008,04,21,03,35,0.40
2008,04,21,03,36,0.40
2008,04,21,03,37,0.40
2008,04,21,03,38,0.40
2008,04,21,03,39,0.50
2008,04,21,03,40,0.50
2008,04,21,03,41,0.50
2008,04,21,03,42,0.60
2008,04,21,03,43,0.70
2008,04,21,03,44,0.70
2008,04,21,03,45,0.70
2008,04,21,03,46,0.70
2008,04,21,03,47,0.70
2008,04,21,03,48,0.70
2008,04,21,03,49,0.70
2008,04,21,03,50,0.70
2008,04,21,03,51,0.60
2008,04,21,03,52,0.60
2008,04,21,03,53,0.60
2008,04,21,03,54,0.60
2008,04,21,03,55,0.60
2008,04,21,03,56,0.70
2008,04,21,03,57,0.70
2008,04,21,03,58,0.70
2008,04,21,03,59,0.70
2008,04,21,04,00,0.70
2008,04,21,04,01,0.70
2008,04,21,04,02,0.70
2008,04,21,04,03,0.70
2008,04,21,04,04,0.70
2008,04,21,04,05,0.70
2008,04,21,04,06,0.70
2008,04,21,04,07,0.70
2008,04,21,04,08,0.70
2008,04,21,04,09,0.70
2008,04,21,04,10,0.70
2008,04,21,04,11,0.70
2008,04,21,04,12,0.70
2008,04,21,04,13,0.70
2008,04,21,04,14,0.70
2008,04,21,04,15,0.70
2008,04,21,04,16,0.60
2008,04,21,04,17,0.60
2008,04,21,04,18,0.60
2008,04,21,04,19,0.60
2008,04,21,04,20,0.60
2008,04,21,04,21,0.60
2008,04,21,04,22,0.60
2008,04,21,04,23,0.60
2008,04,21,04,24,0.60
2008,04,21,04,25,0.60
2008,04,21,04,26,0.70
2008,04,21,04,27,0.70
2008,04,21,04,28,0.70
2008,04,21,04,29,0.80
2008,04,21,04,30,0.80
2008,04,21,04,31,0.80
2008,04,21,04,32,0.80
2008,04,21,04,33,0.80
2008,04,21,04,34,0.70
2008,04,21,04,35,0.70
2008,04,21,04,36,0.70
2008,04,21,04,37,0.70
2008,04,21,04,38,0.70
2008,04,21,04,39,0.80
2008,04,21,04,40,0.80
2008,04,21,04,41,0.80
2008,04,21,04,42,0.80
2008,04,21,04,43,0.80
2008,04,21,04,44,0.80
2008,04,21,04,45,0.80
2008,04,21,04,46,0.80
2008,04,21,04,47,0.80
2008,04,21,04,48,0.80
2008,04,21,04,49,0.70
2008,04,21,04,50,0.70
2008,04,21,04,51,0.70
2008,04,21,04,52,0.70
2008,04,21,04,53,0.80
2008,04,21,04,54,0.80
2008,04,21,04,55,0.80
2008,04,21,04,56,0.70
2008,04,21,04,57,0.70
2008,04,21,04,58,0.70
2008,04,21,04,59,0.70
2008,04,21,05,00,0.70
2008,04,21,05,01,0.60
2008,04,21,05,02,0.60
2008,04,21,05,03,0.60
2008,04,21,05,04,0.60
2008,04,21,05,05,0.60
2008,04,21,05,06,0.50
2008,04,21,05,07,0.50
2008,04,21,05,08,0.50
2008,04,21,05,09,0.50
2008,04,21,05,10,0.50
2008,04,21,05,11,0.50
2008,04,21,05,12,0.50
2008,04,21,05,13,0.50
2008,04,21,05,14,0.50
2008,04,21,05,15,0.50
2008,04,21,05,16,0.50
2008,04,21,05,17,0.50
2008,04,21,05,18,0.50
2008,04,21,05,19,0.60
2008,04,21,05,20,0.60
2008,04,21,05,21,0.60
2008,04,21,05,22,0.60
2008,04,21,05,23,0.60
2008,04,21,05,24,0.70
2008,04,21,05,25,0.70
2008,04,21,05,26,0.80
2008,04,21,05,27,0.80
2008,04,21,05,28,0.90
2008,04,21,05,29,0.90
2008,04,21,05,30,0.90
2008,04,21,05,31,0.90
2008,04,21,05,32,0.90
2008,04,21,05,33,0.90
2008,04,21,05,34,0.90
2008,04,21,05,35,1.00
2008,04,21,05,36,1.00
2008,04,21,05,37,1.00
2008,04,21,05,38,1.10
2008,04,21,05,39,1.10
2008,04,21,05,40,1.10
2008,04,21,05,41,1.00
2008,04,21,05,42,1.00
2008,04,21,05,43,1.00
2008,04,21,05,44,1.10
2008,04,21,05,45,1.10
2008,04,21,05,46,1.10
2008,04,21,05,47,1.10
2008,04,21,05,48,1.10
2008,04,21,05,49,1.00
2008,04,21,05,50,1.00
2008,04,21,05,51,1.10
2008,04,21,05,52,1.00
2008,04,21,05,53,1.00
2008,04,21,05,54,1.10
2008,04,21,05,55,1.10
2008,04,21,05,56,1.10
2008,04,21,05,57,1.10
2008,04,21,05,58,1.10
2008,04,21,05,59,1.10
2008,04,21,06,00,1.10
2008,04,21,06,01,1.10
2008,04,21,06,02,1.10
2008,04,21,06,03,1.10
2008,04,21,06,04,1.10
2008,04,21,06,05,1.10
2008,04,21,06,06,1.10
2008,04,21,06,07,1.10
2008,04,21,06,08,1.10
2008,04,21,06,09,1.10
2008,04,21,06,10,1.10
2008,04,21,06,11,1.00
2008,04,21,06,12,1.00
2008,04,21,06,13,1.00
2008,04,21,06,14,1.00
2008,04,21,06,15,1.00
2008,04,21,06,16,1.10
2008,04,21,06,17,1.10
2008,04,21,06,18,1.10
2008,04,21,06,19,1.20
2008,04,21,06,20,1.20
2008,04,21,06,21,1.20
2008,04,21,06,22,1.20
2008,04,21,06,23,1.30
2008,04,21,06,24,1.30
2008,04,21,06,25,1.30
2008,04,21,06,26,1.30
2008,04,21,06,27,1.30
2008,04,21,06,28,1.30
2008,04,21,06,29,1.30
2008,04,21,06,30,1.20
2008,04,21,06,31,1.20
2008,04,21,06,32,1.20
2008,04,21,06,33,1.20
2008,04,21,06,34,1.20
2008,04,21,06,35,1.20
2008,04,21,06,36,1.10
2008,04,21,06,37,1.10
2008,04,21,06,38,1.10
2008,04,21,06,39,1.10
2008,04,21,06,40,1.10
2008,04,21,06,41,1.10
2008,04,21,06,42,1.10
2008,04,21,06,43,1.20
2008,04,21,06,44,1.20
2008,04,21,06,45,1.20
2008,04,21,06,46,1.30
2008,04,21,06,47,1.30
2008,04,21,06,48,1.30
2008,04,21,06,49,1.20
2008,04,21,06,50,1.20
2008,04,21,06,51,1.20
2008,04,21,06,52,1.20
2008,04,21,06,53,1.30
2008,04,21,06,54,1.30
2008,04,21,06,55,1.30
2008,04,21,06,56,1.30
2008,04,21,06,57,1.30
2008,04,21,06,58,1.30
2008,04,21,06,59,1.30
2008,04,21,07,00,1.30
2008,04,21,07,01,1.30
2008,04,21,07,02,1.30
2008,04,21,07,03,1.30
2008,04,21,07,04,1.30
2008,04,21,07,05,1.30
2008,04,21,07,06,1.30
2008,04,21,07,07,1.30
2008,04,21,07,08,1.40
2008,04,21,07,09,1.40
2008,04,21,07,10,1.50
2008,04,21,07,11,1.50
2008,04,21,07,12,1.50
2008,04,21,07,13,1.50
2008,04,21,07,14,1.50
2008,04,21,07,15,1.50
2008,04,21,07,16,1.50
2008,04,21,07,17,1.50
2008,04,21,07,18,1.60
2008,04,21,07,19,1.60
2008,04,21,07,20,1.60
2008,04,21,07,21,1.60
2008,04,21,07,22,1.60
2008,04,21,07,23,1.60
2008,04,21,07,24,1.60
2008,04,21,07,25,1.60
2008,04,21,07,26,1.60
2008,04,21,07,27,1.70
2008,04,21,07,28,1.60
2008,04,21,07,29,1.70
2008,04,21,07,30,1.70
2008,04,21,07,31,1.70
2008,04,21,07,32,1.70
2008,04,21,07,33,1.70
2008,04,21,07,34,1.70
2008,04,21,07,35,1.70
2008,04,21,07,36,1.70
2008,04,21,07,37,1.70
2008,04,21,07,38,1.70
2008,04,21,07,39,1.70
2008,04,21,07,40,1.70
2008,04,21,07,41,1.70
2008,04,21,07,42,1.70
2008,04,21,07,43,1.70
2008,04,21,07,44,1.70
2008,04,21,07,45,1.70
2008,04,21,07,46,1.70
2008,04,21,07,47,1.70
2008,04,21,07,48,1.70
2008,04,21,07,49,1.70
2008,04,21,07,50,1.70
2008,04,21,07,51,1.70
2008,04,21,07,52,1.70
2008,04,21,07,53,1.70
2008,04,21,07,54,1.70
2008,04,21,07,55,1.70
2008,04,21,07,56,1.70
2008,04,21,07,57,1.70
2008,04,21,07,58,1.70
2008,04,21,07,59,1.70
2008,04,21,08,00,1.80
2008,04,21,08,01,1.80
2008,04,21,08,02,1.80
2008,04,21,08,03,1.80
2008,04,21,08,04,1.80
2008,04,21,08,05,1.80
2008,04,21,08,06,1.80
2008,04,21,08,07,1.80
2008,04,21,08,08,1.80
2008,04,21,08,09,1.80
2008,04,21,08,10,1.90
2008,04,21,08,11,1.90
2008,04,21,08,12,1.90
2008,04,21,08,13,1.90
2008,04,21,08,14,1.90
2008,04,21,08,15,1.90
2008,04,21,08,16,1.90
2008,04,21,08,17,1.90
2008,04,21,08,18,1.90
2008,04,21,08,19,1.90
2008,04,21,08,20,1.90
2008,04,21,08,21,1.90
2008,04,21,08,22,1.90
2008,04,21,08,23,1.90
2008,04,21,08,24,1.90
2008,04,21,08,25,1.90
2008,04,21,08,26,1.90
2008,04,21,08,27,2.00
2008,04,21,08,28,2.00
2008,04,21,08,29,2.00
2008,04,21,08,30,2.00
2008,04,21,08,31,2.00
2008,04,21,08,32,2.00
2008,04,21,08,33,2.00
2008,04,21,08,34,2.00
2008,04,21,08,35,2.00
2008,04,21,08,36,2.10
2008,04,21,08,37,2.10
2008,04,21,08,38,2.10
2008,04,21,08,39,2.10
2008,04,21,08,40,2.10
2008,04,21,08,41,2.10
2008,04,21,08,42,2.10
2008,04,21,08,43,2.20
2008,04,21,08,44,2.20
2008,04,21,08,45,2.30
2008,04,21,08,46,2.40
2008,04,21,08,47,2.50
2008,04,21,08,48,2.50
2008,04,21,08,49,2.60
2008,04,21,08,50,2.60
2008,04,21,08,51,2.60
2008,04,21,08,52,2.70
2008,04,21,08,53,2.70
2008,04,21,08,54,2.70
2008,04,21,08,55,2.80
2008,04,21,08,56,2.90
2008,04,21,08,57,3.00
2008,04,21,08,58,3.10
2008,04,21,08,59,3.20
2008,04,21,09,00,3.20
2008,04,21,09,01,3.30
2008,04,21,09,02,3.30
2008,04,21,09,03,3.40
2008,04,21,09,04,3.40
2008,04,21,09,05,3.40
2008,04,21,09,06,3.50
2008,04,21,09,07,3.50
2008,04,21,09,08,3.60
2008,04,21,09,09,3.60
2008,04,21,09,10,3.60
2008,04,21,09,11,3.60
2008,04,21,09,12,3.70
2008,04,21,09,13,3.70
2008,04,21,09,14,3.70
2008,04,21,09,15,3.70
2008,04,21,09,16,3.70
2008,04,21,09,17,3.70
2008,04,21,09,18,3.70
2008,04,21,09,19,3.70
2008,04,21,09,20,3.70
2008,04,21,09,21,3.70
2008,04,21,09,22,3.70
2008,04,21,09,23,3.80
2008,04,21,09,24,3.80
2008,04,21,09,25,3.80
2008,04,21,09,26,3.80
2008,04,21,09,27,3.90
2008,04,21,09,28,3.90
2008,04,21,09,29,3.90
2008,04,21,09,30,3.90
2008,04,21,09,31,3.90
2008,04,21,09,32,3.90
2008,04,21,09,33,3.90
2008,04,21,09,34,3.90
2008,04,21,09,35,3.90
2008,04,21,09,36,4.00
2008,04,21,09,37,4.10
2008,04,21,09,38,4.10
2008,04,21,09,39,4.10
2008,04,21,09,40,4.10
2008,04,21,09,41,4.10
2008,04,21,09,42,4.10
2008,04,21,09,43,4.00
2008,04,21,09,44,3.90
2008,04,21,09,45,3.90
2008,04,21,09,46,3.90
2008,04,21,09,47,3.80
2008,04,21,09,48,3.80
2008,04,21,09,49,3.70
2008,04,21,09,50,3.70
2008,04,21,09,51,3.70
2008,04,21,09,52,3.70
2008,04,21,09,53,3.70
2008,04,21,09,54,3.70
2008,04,21,09,55,3.70
2008,04,21,09,56,3.70
2008,04,21,09,57,3.70
2008,04,21,09,58,3.70
2008,04,21,09,59,3.70
2008,04,21,10,00,3.70
2008,04,21,10,01,3.70
2008,04,21,10,02,3.70
2008,04,21,10,03,3.80
2008,04,21,10,04,3.80
2008,04,21,10,05,3.80
2008,04,21,10,06,3.80
2008,04,21,10,07,3.80
2008,04,21,10,08,3.90
2008,04,21,10,09,4.00
2008,04,21,10,10,4.10
2008,04,21,10,11,4.30
2008,04,21,10,12,4.40
2008,04,21,10,13,4.50
2008,04,21,10,14,4.60
2008,04,21,10,15,4.60
2008,04,21,10,16,4.70
2008,04,21,10,17,4.70
2008,04,21,10,18,4.70
2008,04,21,10,19,4.60
2008,04,21,10,20,4.70
2008,04,21,10,21,4.70
2008,04,21,10,22,4.80
2008,04,21,10,23,4.80
2008,04,21,10,24,4.70
2008,04,21,10,25,4.70
2008,04,21,10,26,4.70
2008,04,21,10,27,4.70
2008,04,21,10,28,4.70
2008,04,21,10,29,4.80
2008,04,21,10,30,4.80
2008,04,21,10,31,4.80
2008,04,21,10,32,4.80
2008,04,21,10,33,4.90
2008,04,21,10,34,4.90
2008,04,21,10,35,5.00
2008,04,21,10,36,5.00
2008,04,21,10,37,5.10
2008,04,21,10,38,5.20
2008,04,21,10,39,5.30
2008,04,21,10,40,5.30
2008,04,21,10,41,5.40
2008,04,21,10,42,5.40
2008,04,21,10,43,5.40
2008,04,21,10,44,5.40
2008,04,21,10,45,5.40
2008,04,21,10,46,5.40
2008,04,21,10,47,5.40
2008,04,21,10,48,5.30
2008,04,21,10,49,5.40
2008,04,21,10,50,5.40
2008,04,21,10,51,5.50
2008,04,21,10,52,5.50
2008,04,21,10,53,5.50
2008,04,21,10,54,5.60
2008,04,21,10,55,5.60
2008,04,21,10,56,5.70
2008,04,21,10,57,5.80
2008,04,21,10,58,5.80
2008,04,21,10,59,5.80
2008,04,21,11,00,5.80
2008,04,21,11,01,5.80
2008,04,21,11,02,5.70
2008,04,21,11,03,5.70
2008,04,21,11,04,5.70
2008,04,21,11,05,5.70
2008,04,21,11,06,5.70
2008,04,21,11,07,5.70
2008,04,21,11,08,5.70
2008,04,21,11,09,5.70
2008,04,21,11,10,5.70
2008,04,21,11,11,5.60
2008,04,21,11,12,5.60
2008,04,21,11,13,5.70
2008,04,21,11,14,5.70
2008,04,21,11,15,5.70
2008,04,21,11,16,5.70
2008,04,21,11,17,5.70
2008,04,21,11,18,5.70
2008,04,21,11,19,5.80
2008,04,21,11,20,5.70
2008,04,21,11,21,5.70
2008,04,21,11,22,5.70
2008,04,21,11,23,5.70
2008,04,21,11,24,5.70
2008,04,21,11,25,5.70
2008,04,21,11,26,5.70
2008,04,21,11,27,5.80
2008,04,21,11,28,5.90
2008,04,21,11,29,6.00
2008,04,21,11,30,6.20
2008,04,21,11,31,6.30
2008,04,21,11,32,6.50
2008,04,21,11,33,6.70
2008,04,21,11,34,6.80
2008,04,21,11,35,6.90
2008,04,21,11,36,7.10
2008,04,21,11,37,7.10
2008,04,21,11,38,7.10
2008,04,21,11,39,7.10
2008,04,21,11,40,7.20
2008,04,21,11,41,7.20
2008,04,21,11,42,7.30
2008,04,21,11,43,7.30
2008,04,21,11,44,7.30
2008,04,21,11,45,7.40
2008,04,21,11,46,7.40
2008,04,21,11,47,7.30
2008,04,21,11,48,7.30
2008,04,21,11,49,7.30
2008,04,21,11,50,7.40
2008,04,21,11,51,7.40
2008,04,21,11,52,7.40
2008,04,21,11,53,7.20
2008,04,21,11,54,7.10
2008,04,21,11,55,7.00
2008,04,21,11,56,6.90
2008,04,21,11,57,6.80
2008,04,21,11,58,6.80
2008,04,21,11,59,6.70
2008,04,21,12,00,6.60
2008,04,21,12,01,6.60
2008,04,21,12,02,6.60
2008,04,21,12,03,6.60
2008,04,21,12,04,6.60
2008,04,21,12,05,6.50
2008,04,21,12,06,6.50
2008,04,21,12,07,6.40
2008,04,21,12,08,6.40
2008,04,21,12,09,6.30
2008,04,21,12,10,6.30
2008,04,21,12,11,6.20
2008,04,21,12,12,6.20
2008,04,21,12,13,6.20
2008,04,21,12,14,6.20
2008,04,21,12,15,6.30
2008,04,21,12,16,6.30
2008,04,21,12,17,6.30
2008,04,21,12,18,6.40
2008,04,21,12,19,6.40
2008,04,21,12,20,6.40
2008,04,21,12,21,6.50
2008,04,21,12,22,6.50
2008,04,21,12,23,6.60
2008,04,21,12,24,6.60
2008,04,21,12,25,6.60
2008,04,21,12,26,6.60
2008,04,21,12,27,6.70
2008,04,21,12,28,6.80
2008,04,21,12,29,6.90
2008,04,21,12,30,7.10
2008,04,21,12,31,7.10
2008,04,21,12,32,7.20
2008,04,21,12,33,7.20
2008,04,21,12,34,7.20
2008,04,21,12,35,7.20
2008,04,21,12,36,7.10
2008,04,21,12,37,6.90
2008,04,21,12,38,6.80
2008,04,21,12,39,6.80
2008,04,21,12,40,6.80
2008,04,21,12,41,6.80
2008,04,21,12,42,6.80
2008,04,21,12,43,6.80
2008,04,21,12,44,6.80
2008,04,21,12,45,6.90
2008,04,21,12,46,7.00
2008,04,21,12,47,7.00
2008,04,21,12,48,7.00
2008,04,21,12,49,6.90
2008,04,21,12,50,6.90
2008,04,21,12,51,6.80
2008,04,21,12,52,6.70
2008,04,21,12,53,6.60
2008,04,21,12,54,6.50
2008,04,21,12,55,6.40
2008,04,21,12,56,6.30
2008,04,21,12,57,6.30
2008,04,21,12,58,6.30
2008,04,21,12,59,6.30
2008,04,21,13,00,6.40
2008,04,21,13,01,6.50
2008,04,21,13,02,6.70
2008,04,21,13,03,6.80
2008,04,21,13,04,6.90
2008,04,21,13,05,6.90
2008,04,21,13,06,7.00
2008,04,21,13,07,7.10
2008,04,21,13,08,7.20
2008,04,21,13,09,7.30
2008,04,21,13,10,7.40
2008,04,21,13,11,7.50
2008,04,21,13,12,7.70
2008,04,21,13,13,7.70
2008,04,21,13,14,7.70
2008,04,21,13,15,7.70
2008,04,21,13,16,7.60
2008,04,21,13,17,7.50
2008,04,21,13,18,7.30
2008,04,21,13,19,7.20
2008,04,21,13,20,7.10
2008,04,21,13,21,7.00
2008,04,21,13,22,7.00
2008,04,21,13,23,6.90
2008,04,21,13,24,6.80
2008,04,21,13,25,6.80
2008,04,21,13,26,6.80
2008,04,21,13,27,6.80
2008,04,21,13,28,6.80
2008,04,21,13,29,6.80
2008,04,21,13,30,6.80
2008,04,21,13,31,6.80
2008,04,21,13,32,6.80
2008,04,21,13,33,6.90
2008,04,21,13,34,6.90
2008,04,21,13,35,6.90
2008,04,21,13,36,6.90
2008,04,21,13,37,6.90
2008,04,21,13,38,6.90
2008,04,21,13,39,6.80
2008,04,21,13,40,6.90
2008,04,21,13,41,6.90
2008,04,21,13,42,6.90
2008,04,21,13,43,6.90
2008,04,21,13,44,6.90
2008,04,21,13,45,7.00
2008,04,21,13,46,7.10
2008,04,21,13,47,7.20
2008,04,21,13,48,7.30
2008,04,21,13,49,7.40
2008,04,21,13,50,7.50
2008,04,21,13,51,7.60
2008,04,21,13,52,7.70
2008,04,21,13,53,7.70
2008,04,21,13,54,7.70
2008,04,21,13,55,7.60
2008,04,21,13,56,7.60
2008,04,21,13,57,7.70
2008,04,21,13,58,7.70
2008,04,21,13,59,7.70
2008,04,21,14,00,7.70
2008,04,21,14,01,7.70
2008,04,21,14,02,7.70
2008,04,21,14,03,7.70
2008,04,21,14,04,7.70
2008,04,21,14,05,7.70
2008,04,21,14,06,7.70
2008,04,21,14,07,7.70
2008,04,21,14,08,7.80
2008,04,21,14,09,7.80
2008,04,21,14,10,7.80
2008,04,21,14,11,7.90
2008,04,21,14,12,7.90
2008,04,21,14,13,7.90
2008,04,21,14,14,8.00
2008,04,21,14,15,8.00
2008,04,21,14,16,8.10
2008,04,21,14,17,8.10
2008,04,21,14,18,8.20
2008,04,21,14,19,8.30
2008,04,21,14,20,8.40
2008,04,21,14,21,8.40
2008,04,21,14,22,8.30
2008,04,21,14,23,8.20
2008,04,21,14,24,8.20
2008,04,21,14,25,8.20
2008,04,21,14,26,8.30
2008,04,21,14,27,8.30
2008,04,21,14,28,8.30
2008,04,21,14,29,8.30
2008,04,21,14,30,8.40
2008,04,21,14,31,8.50
2008,04,21,14,32,8.60
2008,04,21,14,33,8.70
2008,04,21,14,34,8.60
2008,04,21,14,35,8.60
2008,04,21,14,36,8.60
2008,04,21,14,37,8.50
2008,04,21,14,38,8.50
2008,04,21,14,39,8.50
2008,04,21,14,40,8.50
2008,04,21,14,41,8.60
2008,04,21,14,42,8.70
2008,04,21,14,43,8.70
2008,04,21,14,44,8.80
2008,04,21,14,45,8.70
2008,04,21,14,46,8.70
2008,04,21,14,47,8.70
2008,04,21,14,48,8.60
2008,04,21,14,49,8.70
2008,04,21,14,50,8.70
2008,04,21,14,51,8.90
2008,04,21,14,52,8.90
2008,04,21,14,53,8.80
2008,04,21,14,54,8.80
2008,04,21,14,55,8.80
2008,04,21,14,56,8.80
2008,04,21,14,57,8.70
2008,04,21,14,58,8.60
2008,04,21,14,59,8.60
2008,04,21,15,00,8.60
2008,04,21,15,01,8.70
2008,04,21,15,02,8.80
2008,04,21,15,03,8.70
2008,04,21,15,04,8.70
2008,04,21,15,05,8.70
2008,04,21,15,06,8.80
2008,04,21,15,07,8.70
2008,04,21,15,08,8.70
2008,04,21,15,09,8.70
2008,04,21,15,10,8.60
2008,04,21,15,11,8.60
2008,04,21,15,12,8.70
2008,04,21,15,13,8.80
2008,04,21,15,14,8.90
2008,04,21,15,15,9.00
2008,04,21,15,16,9.10
2008,04,21,15,17,9.20
2008,04,21,15,18,9.20
2008,04,21,15,19,9.20
2008,04,21,15,20,9.10
2008,04,21,15,21,9.20
2008,04,21,15,22,9.20
2008,04,21,15,23,9.20
2008,04,21,15,24,9.10
2008,04,21,15,25,9.10
2008,04,21,15,26,9.10
2008,04,21,15,27,9.10
2008,04,21,15,28,9.10
2008,04,21,15,29,9.00
2008,04,21,15,30,9.00
2008,04,21,15,31,9.00
2008,04,21,15,32,9.00
2008,04,21,15,33,9.00
2008,04,21,15,34,9.00
2008,04,21,15,35,9.00
2008,04,21,15,36,9.10
2008,04,21,15,37,9.10
2008,04,21,15,38,9.10
2008,04,21,15,39,9.10
2008,04,21,15,40,9.20
2008,04,21,15,41,9.20
2008,04,21,15,42,9.20
2008,04,21,15,43,9.20
2008,04,21,15,44,9.20
2008,04,21,15,45,9.20
2008,04,21,15,46,9.10
2008,04,21,15,47,9.10
2008,04,21,15,48,9.10
2008,04,21,15,49,9.10
2008,04,21,15,50,9.10
2008,04,21,15,51,9.10
2008,04,21,15,52,9.20
2008,04,21,15,53,9.20
2008,04,21,15,54,9.20
2008,04,21,15,55,9.20
2008,04,21,15,56,9.10
2008,04,21,15,57,9.10
2008,04,21,15,58,9.10
2008,04,21,15,59,9.10
2008,04,21,16,00,9.00
2008,04,21,16,01,8.90
2008,04,21,16,02,8.80
2008,04,21,16,03,8.70
2008,04,21,16,04,8.70
2008,04,21,16,05,8.60
2008,04,21,16,06,8.50
2008,04,21,16,07,8.30
2008,04,21,16,08,8.20
2008,04,21,16,09,8.20
2008,04,21,16,10,8.10
2008,04,21,16,11,8.00
2008,04,21,16,12,8.00
2008,04,21,16,13,7.90
2008,04,21,16,14,7.90
2008,04,21,16,15,7.90
2008,04,21,16,16,7.80
2008,04,21,16,17,7.80
2008,04,21,16,18,7.80
2008,04,21,16,19,7.70
2008,04,21,16,20,7.70
2008,04,21,16,21,7.80
2008,04,21,16,22,7.80
2008,04,21,16,23,7.80
2008,04,21,16,24,7.90
2008,04,21,16,25,7.90
2008,04,21,16,26,8.00
2008,04,21,16,27,8.10
2008,04,21,16,28,8.20
2008,04,21,16,29,8.20
2008,04,21,16,30,8.20
2008,04,21,16,31,8.20
2008,04,21,16,32,8.20
2008,04,21,16,33,8.20
2008,04,21,16,34,8.30
2008,04,21,16,35,8.30
2008,04,21,16,36,8.40
2008,04,21,16,37,8.50
2008,04,21,16,38,8.60
2008,04,21,16,39,8.50
2008,04,21,16,40,8.40
2008,04,21,16,41,8.30
2008,04,21,16,42,8.30
2008,04,21,16,43,8.30
2008,04,21,16,44,8.30
2008,04,21,16,45,8.30
2008,04,21,16,46,8.20
2008,04,21,16,47,8.20
2008,04,21,16,48,8.30
2008,04,21,16,49,8.30
2008,04,21,16,50,8.30
2008,04,21,16,51,8.30
2008,04,21,16,52,8.20
2008,04,21,16,53,8.30
2008,04,21,16,54,8.40
2008,04,21,16,55,8.50
2008,04,21,16,56,8.60
2008,04,21,16,57,8.70
2008,04,21,16,58,8.70
2008,04,21,16,59,8.80
2008,04,21,17,00,8.80
2008,04,21,17,01,8.80
2008,04,21,17,02,8.70
2008,04,21,17,03,8.70
2008,04,21,17,04,8.70
2008,04,21,17,05,8.60
2008,04,21,17,06,8.50
2008,04,21,17,07,8.40
2008,04,21,17,08,8.40
2008,04,21,17,09,8.30
2008,04,21,17,10,8.30
2008,04,21,17,11,8.40
2008,04,21,17,12,8.40
2008,04,21,17,13,8.40
2008,04,21,17,14,8.40
2008,04,21,17,15,8.30
2008,04,21,17,16,8.30
2008,04,21,17,17,8.30
2008,04,21,17,18,8.30
2008,04,21,17,19,8.30
2008,04,21,17,20,8.20
2008,04,21,17,21,8.20
2008,04,21,17,22,8.30
2008,04,21,17,23,8.20
2008,04,21,17,24,8.10
2008,04,21,17,25,8.10
2008,04,21,17,26,8.10
2008,04,21,17,27,8.10
2008,04,21,17,28,8.10
2008,04,21,17,29,8.10
2008,04,21,17,30,8.10
2008,04,21,17,31,8.20
2008,04,21,17,32,8.20
2008,04,21,17,33,8.30
2008,04,21,17,34,8.40
2008,04,21,17,35,8.50
2008,04,21,17,36,8.60
2008,04,21,17,37,8.70
2008,04,21,17,38,8.60
2008,04,21,17,39,8.60
2008,04,21,17,40,8.60
2008,04,21,17,41,8.60
2008,04,21,17,42,8.50
2008,04,21,17,43,8.40
2008,04,21,17,44,8.40
2008,04,21,17,45,8.30
2008,04,21,17,46,8.30
2008,04,21,17,47,8.20
2008,04,21,17,48,8.20
2008,04,21,17,49,8.10
2008,04,21,17,50,8.00
2008,04,21,17,51,7.90
2008,04,21,17,52,7.90
2008,04,21,17,53,7.80
2008,04,21,17,54,7.80
2008,04,21,17,55,7.70
2008,04,21,17,56,7.70
2008,04,21,17,57,7.70
2008,04,21,17,58,7.60
2008,04,21,17,59,7.60
2008,04,21,18,00,7.60
2008,04,21,18,01,7.60
2008,04,21,18,02,7.60
2008,04,21,18,03,7.60
2008,04,21,18,04,7.60
2008,04,21,18,05,7.60
2008,04,21,18,06,7.60